Location: Berg
(48.4333°N, 13.9167°E)
Time: 05:37:00
(UTC+00:00)

Exosat Rocket - Pass Details

Date: 18 September 2020
Orbit: 761 x 2514 km, 72.3° (Epoch: 27 October)

Event Time Altitude Azimuth Distance (km) Brightness Sun altitude
Rises 18:58:47 0° 186° (S) 3,712 6.9 -18.3°
Reaches altitude 10° 19:01:37 10° 181° (S) 2,594 6.0 -18.7°
Maximum altitude 19:06:59 47° 109° (ESE) 1,055 3.7 -19.5°
Drops below altitude 10° 19:11:45 10° 36° (NE) 2,303 5.9 -20.2°
Sets 19:14:07 0° 31° (NNE) 3,252 6.7 -20.6°
